Regional Weather Roundup
Issued by NWS Goodland, KS

Home | Current Version | Previous Version | Text Only | Print | Product List | Glossary Off
Versions: 1 2 3 4 5 6 7 8 9 10 11 12 13 14 15 16 17 18 19 20 21 22 23 24 25 26 27 28 29 30 31 32 33 34 35 36 37 38 39 40 41 42 43 44 45 46 47 48 49 50

000
ASUS43 KGLD 272059
RWRGLD

GOODLAND FORECAST AREA HOURLY WEATHER ROUNDUP
NATIONAL WEATHER SERVICE GOODLAND KS
300 PM MDT THU AUG 27 2015

...OFFICIAL OBSERVATIONS...

CITY           SKY/WX    TMP DP  RH WIND       PRES   REMARKS
GOODLAND KS    FAIR      91  48  22 NW16      29.94F
HILL CITY KS   FAIR      96  58  27 S17G24    29.83F
IMPERIAL NEB   FAIR      92  55  28 N13       29.90S
MCCOOK NEB     FAIR      93  55  27 W12       29.84S
AKRON CO       FAIR      88  47  24 NW14G30   30.03F
BURLINGTON CO  FAIR      92  48  22 NW18      30.00F
LIMON CO       FAIR      83  50  31 NW14G23   30.11S
$$

...UNOFFICIAL OBSERVATIONS...

CITY           SKY/WX    TMP DP  RH WIND       PRES   REMARKS
COLBY KS       SUNNY     95  59  30 W13G20    29.91S
GOVE KS          N/A     96  32  10 MISG        N/A
LENORA KS        N/A     92  32  12 MISG        N/A
NORTON KS      SUNNY     90  52  27 S9G16     29.82F
SHARON SPRINGS   N/A     92  53  26 CALM        N/A
KIT CARSON CO    N/A     92  53  26 MISG        N/A
YUMA CO          N/A     90  50  25 N15G26      N/A
$$


USA.gov is the U.S. government's official web portal to all federal, state and local government web resources and services.